Location: ??????
(41.3164°N, 22.6615°E)
Time: 00:25:38
(UTC+00:00)

Cosmos 1844 Rocket - Pass Details

Date: 16 October 2021
Orbit: 826 x 843 km, 71.0° (Epoch: 26 November)

Event Time Altitude Azimuth Distance (km) Brightness Sun altitude
Rises 17:57:06 0° 346° (NNW) 3,375 6.2 -25.2°
Reaches altitude 10° 18:00:00 10° 359° (N) 2,437 5.2 -25.7°
Enters shadow 18:02:20 20° 21° (NNE) 1,851 4.4 -26.1°
